Regional Weather Roundup
Issued by NWS Charleston, WV

Home | Current Version | Previous Version | Graphics & Text | Print | Product List | Glossary On
Versions: 1 2 3 4 5 6 7 8 9 10 11 12 13 14 15 16 17 18 19 20 21 22 23 24 25 26 27 28 29 30 31 32 33 34 35 36 37 38 39 40 41 42 43 44 45 46 47 48 49 50
000
ASUS41 KRLX 271110
RWRRLX
West Virginia Regional Weather Roundup
National Weather Service Charleston WV
600 AM EST SAT DEC 27 2014

Note: "fair" indicates few or no clouds below 12,000 feet with no
significant weather and/or obstructions to visibility.

WVZ003-271200-
Northern Panhandle of West Virginia

CITY           SKY/WX    TMP DP  RH WIND       PRES   REMARKS
WHEELING       MOCLDY    39  29  67 S6        30.21S
$$

WVZ009-271200-
Northwest West Virginia

CITY           SKY/WX    TMP DP  RH WIND       PRES   REMARKS
PARKERSBURG    MOCLDY    38  30  73 CALM      30.25F
$$

WVZ006-271200-
Western West Virginia

CITY           SKY/WX    TMP DP  RH WIND       PRES   REMARKS
HUNTINGTON     CLOUDY    42  32  67 S3        30.23S
$$

WVZ015-271200-
West Central West Virginia

CITY           SKY/WX    TMP DP  RH WIND       PRES   REMARKS
CHARLESTON     MOCLDY    40  32  73 CALM      30.23S
$$

WVZ022-031-271200-
North Central West Virginia

CITY           SKY/WX    TMP DP  RH WIND       PRES   REMARKS
CLARKSBURG     PTCLDY    30  28  92 N3        30.22F
MORGANTOWN     CLEAR     32  24  72 CALM      30.24R
$$

WVZ025-035-042-045-271200-
Southern West Virginia

CITY           SKY/WX    TMP DP  RH WIND       PRES   REMARKS
BECKLEY        MOCLDY    38  26  62 S7        30.25R
LOGAN          PTSUNNY   45  27  49 CALM      30.23F
BLUEFIELD      CLOUDY    41  24  51 W5        30.26S
LEWISBURG      MOCLDY    33  30  88 CALM      30.27R
$$

WVZ047-271200-
Northern Mountains of West Virginia

CITY           SKY/WX    TMP DP  RH WIND       PRES   REMARKS
ELKINS         PTCLDY    30  28  92 CALM      30.25S
$$

WVZ052-271200-
Eastern Panhandle of West Virginia

CITY           SKY/WX    TMP DP  RH WIND       PRES   REMARKS
MARTINSBURG    PTCLDY    30  25  81 CALM      30.26R
PETERSBURG     MOCLDY    34  33  96 CALM      30.24F
$$



USA.gov is the U.S. government's official web portal to all federal, state and local government web resources and services.